This demonstration page uses our WeatherBlox Daily Observations layout. Learn more.

Left ArrowRight Arrow

39.92423, -83.80882

Hourly Observations for January 28, 2020

Temp ( °F °C ) Dew Point ( °F °C ) Humidity (%) Winds ( mph kmh ) Pressure ( in mb ) Visibility ( mi km ) Precip ( " mm )
12:31 am 00:31 Cloudy with Mist and Fog 32 0 30 -1 93 93 W 9 15 30.06 1018 5 8.0467 0 0
12:56 am 00:56 Cloudy with Mist and Fog 32 0 31 -0.6 96 96 WNW 8 13 30.04 1017 5 8.0467 0 0
1:56 am 01:56 Cloudy with Haze N/A N/A N/A W 6 9 N/A 4 6.43736 0 0
2:13 am 02:13 Cloudy with Mist and Fog 32 0 32 0 100 100 WNW 7 11 30.06 1018 4 6.43736 0 0
2:56 am 02:56 Cloudy with Mist and Fog 32 0 32 0 100 100 W 8 13 30.06 1018 3 4.82802 0 0
3:56 am 03:56 Cloudy with Mist and Fog 32 0 32 0 100 100 WNW 5 7 30.06 1018 3 4.82802 0 0
4:09 am 04:09 Cloudy with Mist and Fog 32 0 32 0 100 100 W 6 9 30.07 1018 2.5 4.02335 0 0
4:50 am 04:50 Cloudy with Mist and Fog 32 0 32 0 100 100 W 7 11 30.07 1018 3 4.82802 0 0
4:56 am 04:56 Cloudy with Mist and Fog 32 0 32 0 100 100 W 7 11 30.06 1018 3 4.82802 0 0
5:04 am 05:04 Cloudy with Mist and Fog 32 0 32 0 100 100 W 7 11 30.08 1019 3 4.82802 0 0
5:30 am 05:30 Cloudy with Mist and Fog 32 0 32 0 100 100 W 6 9 30.08 1019 3 4.82802 0 0
5:56 am 05:56 Cloudy with Mist and Fog 32 0 32 0 100 100 W 6 9 30.06 1018 3 4.82802 0 0
6:56 am 06:56 Cloudy with Mist and Fog 32 0 32 0 100 100 W 5 7 30.07 1018 3 4.82802 0 0
7:51 am 07:51 Cloudy with Mist and Fog N/A N/A N/A WNW 5 7 N/A 2 3.21868 0 0
7:56 am 07:56 Cloudy with Mist and Fog N/A N/A N/A NW 6 9 N/A 2 3.21868 0 0
8:13 am 08:13 Cloudy with Mist and Fog N/A N/A N/A NW 3 6 N/A 1.75 2.816345 0 0
8:28 am 08:28 Cloudy with Mist and Fog N/A N/A N/A WNW 3 6 N/A 2 3.21868 0 0
8:35 am 08:35 Cloudy with Mist and Fog 32 0 32 0 100 100 WNW 3 6 30.11 1020 2 3.21868 0 0
8:56 am 08:56 Cloudy with Mist and Fog 32 0 32 0 100 100 W 3 6 30.1 1019 2 3.21868 0 0
9:08 am 09:08 Cloudy with Mist and Fog 32 0 32 0 100 100 WNW 3 6 30.11 1020 2 3.21868 0 0
9:56 am 09:56 Cloudy with Mist and Fog 32 0 32 0 100 100 W 6 9 30.11 1020 2 3.21868 0 0
10:20 am 10:20 Cloudy with Mist and Fog 32 0 32 0 100 100 W 3 6 30.13 1020 2 3.21868 0 0
10:33 am 10:33 Cloudy with Light Wintry Mix 32 0 32 0 100 100 W 6 9 30.13 1020 1.75 2.816345 0 0
10:56 am 10:56 Cloudy with Light Wintry Mix 32 0 32 0 100 100 WNW 5 7 30.12 1020 2.5 4.02335 0 0
11:26 am 11:26 Cloudy with Light Freezing Rain 32 0 32 0 100 100 W 5 7 30.13 1020 2.5 4.02335 0 0
11:33 am 11:33 Cloudy with Light Freezing Rain 32 0 32 0 100 100 W 7 11 30.13 1020 3 4.82802 0 0
11:39 am 11:39 Cloudy with Light Freezing Rain 32 0 32 0 100 100 WNW 6 9 30.13 1020 3 4.82802 0 0
11:54 am 11:54 Cloudy with Mist and Fog 34 1 32 0 93 93 W 7 11 30.12 1020 4 6.43736 0 0
11:56 am 11:56 Cloudy with Mist and Fog 33 0.6 32 0 96 96 W 8 13 30.11 1020 4 6.43736 0 0
12:56 pm 12:56 Cloudy 33 0.6 30 -1.1 89 89 W 7 11 30.09 1019 10 16.0934 0 0
1:56 pm 13:56 Cloudy 33 0.6 29 -1.7 85 85 W 7 11 30.08 1019 10 16.0934 0 0
2:56 pm 14:56 Cloudy 33 0.6 29 -1.7 85 85 WNW 7 11 30.06 1018 10 16.0934 0 0
3:56 pm 15:56 Cloudy 33 0.6 29 -1.7 85 85 WNW 8 13 30.08 1019 10 16.0934 0 0
4:56 pm 16:56 Cloudy 32 0 29 -1.7 88 88 NW 8 13 30.09 1019 10 16.0934 0 0
5:56 pm 17:56 Cloudy 32 0 28 -2.2 85 85 WNW 7 11 30.11 1020 10 16.0934 0 0
6:56 pm 18:56 Cloudy with Light Wintry Mix 32 0 30 -1.1 92 92 NW 7 11 30.13 1020 10 16.0934 0 0
7:30 pm 19:30 Cloudy with Light Wintry Mix 30 -1 30 -1 100 100 NW 5 7 30.15 1021 9 14.48406 0 0
7:54 pm 19:54 Cloudy with Light Wintry Mix 30 -1 30 -1 100 100 NNW 5 7 30.14 1021 5 8.0467 0 0
7:56 pm 19:56 Cloudy with Light Wintry Mix 31 -0.6 31 -0.6 100 100 N 5 7 30.14 1021 5 8.0467 0 0
8:27 pm 20:27 Cloudy with Light Wintry Mix 30 -1 30 -1 100 100 NNW 5 7 30.14 1021 5 8.0467 0 0
8:56 pm 20:56 Cloudy with Mist and Fog 31 -0.6 31 -0.6 100 100 N 5 7 30.12 1020 6 9.65604 0 0
9:56 pm 21:56 Cloudy 31 -0.6 30 -1.1 96 96 Calm 30.13 1020 7 11.26538 0 0
10:56 pm 22:56 Cloudy 31 -0.6 29 -1.7 92 92 NW 3 6 30.13 1020 10 16.0934 0 0
11:56 pm 23:56 Cloudy 31 -0.6 29 -1.7 92 92 Calm 30.13 1020 9 14.48406 0 0

Powered by AerisWeather